Regional Weather Roundup
Issued by NWS Green Bay, WI

Home | Current Version | Previous Version | Graphics & Text | Print | Product List | Glossary Off
Versions: 1 2 3 4 5 6 7 8 9 10 11 12 13 14 15 16 17 18 19 20 21 22 23 24 25 26 27 28 29 30 31 32 33 34 35 36 37 38 39 40 41 42 43 44 45 46 47 48 49 50

000
ASUS43 KGRB 281611
RWRGRB

NORTH-CENTRAL AND NORTHEAST WISCONSIN REGIONAL WEATHER ROUNDUP
NATIONAL WEATHER SERVICE GREEN BAY WI
1100 AM CDT TUE JUL 28 2015

WIZ005-009-010>012-018-019-281700-
NORTH CENTRAL WISCONSIN

CITY           SKY/WX    TMP DP  RH WIND       PRES   REMARKS
IRONWOOD       CLOUDY    75  64  69 S16G26    29.84F
MANITOWISH WTR CLOUDY    72  64  76 S15       29.95F
ARBOR VITAE    CLOUDY    73  64  73 S10G16    29.98S
EAGLE RIVER    CLOUDY    74  61  64 S7        29.99S
LAND O LAKES   CLOUDY    74  63  68 S7        29.99F
RHINELANDER    CLOUDY    74  62  66 S14       30.01S
PHILLIPS       CLOUDY    71  64  79 S15       29.94F
ANTIGO         CLOUDY    76  64  67 S15       30.03S
TOMAHAWK       CLOUDY    71  63  76 CALM      30.00F
MERRILL        NOT AVBL
$$

WIZ013-073-281700-
NORTHEAST WISCONSIN

CITY           SKY/WX    TMP DP  RH WIND       PRES   REMARKS
IRON MOUNTAIN  CLOUDY    80  63  55 S10       30.00S
MARINETTE      PTSUNNY   81  64  57 SW10      30.00R
OCONTO         PTSUNNY   81  66  61 S8        30.01S
$$

WIZ017-030-035>037-045-281700-
CENTRAL WISCONSIN

CITY           SKY/WX    TMP DP  RH WIND       PRES   REMARKS
MEDFORD        CLOUDY    71  65  82 S13       29.99F
WAUSAU         CLOUDY    78  64  61 S12       30.00R
MOSINEE        SUNNY     75  64  69 S12       30.03R
MARSHFIELD     CLOUDY    74  63  68 S9        30.01S
WISC RAPIDS    CLOUDY    77  63  61 SW12      30.02S
STEVENS POINT  CLOUDY    76  63  63 S10       30.02R
WAUPACA        PTSUNNY   83  64  54 SE10      30.01F
SHAWANO        CLOUDY    83  66  55 S7        30.01F
CLINTONVILLE   PTSUNNY   82  63  51 S14       30.01S
$$

WIZ038-039-048-051-281700-
FOX VALLEY

CITY           SKY/WX    TMP DP  RH WIND       PRES   REMARKS
NWS GREEN BAY  PTSUNNY   83  67  58 S10       30.01S
APPLETON       PTSUNNY   82  63  51 S12       30.03R
OSHKOSH        PTSUNNY   83  65  54 S10       30.02R
FOND DU LAC    PTSUNNY   83  64  52 S12       30.02R
$$

WIZ022-050-052-281700-
EAST CENTRAL WISCONSIN

CITY           SKY/WX    TMP DP  RH WIND       PRES   REMARKS
STURGEON BAY   PTSUNNY   81  64  57 S13       30.04S
MANITOWOC      MOSUNNY   81  66  60 MISG      30.03R
SHEBOYGAN      MOSUNNY   83  65  54 S10       30.03R
$$

LMZ563-521-522-541>543-281700-
LAKESHORE

STATION/POSITION TIME  TEMP    WIND        PRES    VSBY  WAVE
                       AIR SEA DIR/SP/G                  HT/PER
                 (UTC) (F)     (DEG/KT/KT) (MB)    (MI)  (FT/S)
SHEBOYGAN LKSHOR 1600   72     160/ 11/ 12 1016.8R
KEWAUNEE LKSHORE 1500   70     150/  6/  6 1016.0R
ALGOMA MARINA    1512             CALM       N/A
TWO RIVERS CG    1510   74                 1016.5      6   0
NORTHPORT PIER   1500   78     160/  6/  9 1016.3S
N MID LAKE BUOY  1550   72 71  210/  6/  6 1016.1R         0
S GREEN BAY BUOY 1600   78 76  220/  6/  8 1017.8R
SISTER BAY LKSHO 1544   83     180/ 13/ 16   N/A
STURGEON BAY CG  1529   71     130/  4     1017.2      6   0
CHAMBERS ISLAND  1500   80     160/  3/  9 1015.9S
MENOMINEE LKSHOR 1500   76     170/  8/ 12 1016.8F
$$


USA.gov is the U.S. government's official web portal to all federal, state and local government web resources and services.